QPF
0.01 0.01 0.01 0.01 0.01 0.01 0.01 0.02 0.02 0.01 0.01 0.01 0.01 0.01 0.01 0.00 0.00 0.00 0.00 0.00 0.00 0.00 0.00 0.00 0.00 0.00 0.00 0.00 0.00 0.01 0.01 0.01 0.01 0.01 0.01 0.01 0.02 0.02 0.03 0.03 0.03 0.02 0.02 0.02
0.01 0.01 0.01 0.01 0.00 0.01 0.01 0.01 0.01 0.01 0.01 0.01 0.00 0.00 0.00 0.00 0.00 0.00 0.00 0.01 0.01 0.00 0.00 0.00 0.00 0.00 0.00 0.01 0.01 0.01 0.01 0.01 0.01 0.02 0.02 0.02 0.03 0.03 0.04 0.04 0.03 0.03 0.02 0.02
0.02 0.01 0.01 0.01 0.01 0.00 0.01 0.01 0.01 0.01 0.01 0.01 0.00 0.00 0.00 0.00 0.00 0.00 0.01 0.01 0.01 0.01 0.01 0.01 0.01 0.01 0.01 0.01 0.01 0.01 0.01 0.01 0.02 0.02 0.03 0.03 0.04 0.04 0.05 0.05 0.04 0.04 0.03 0.02
0.02 0.02 0.02 0.01 0.00 0.00 0.00 0.00 0.01 0.01 0.01 0.01 0.00 0.00 0.00 0.01 0.00 0.00 0.01 0.01 0.01 0.01 0.01 0.01 0.01 0.01 0.01 0.01 0.01 0.01 0.01 0.02 0.02 0.02 0.02 0.03 0.04 0.05 0.06 0.06 0.05 0.04 0.04 0.03
0.03 0.02 0.01 0.00 0.00 0.00 0.00 0.00 0.00 0.01 0.00 0.00 0.00 0.00 0.00 0.01 0.00 0.01 0.01 0.01 0.01 0.01 0.01 0.01 0.01 0.01 0.01 0.01 0.01 0.01 0.01 0.01 0.02 0.02 0.02 0.03 0.03 0.04 0.05 0.06 0.06 0.05 0.04 0.03
0.03 0.02 0.01 0.00 0.00 0.00 0.00 0.01 0.01 0.00 0.00 0.01 0.01 0.01 0.01 0.00 0.00 0.01 0.01 0.01 0.01 0.01 0.01 0.01 0.01 0.01 0.01 0.01 0.01 0.01 0.01 0.01 0.01 0.02 0.02 0.02 0.02 0.03 0.04 0.04 0.05 0.05 0.04 0.03
0.02 0.02 0.01 0.00 0.00 0.00 0.01 0.01 0.00 0.00 0.01 0.01 0.01 0.01 0.01 0.00 0.00 0.01 0.01 0.00 0.01 0.01 0.01 0.01 0.01 0.01 0.02 0.02 0.02 0.02 0.03 0.03 0.02 0.02 0.02 0.02 0.02 0.03 0.03 0.04 0.04 0.04 0.04 0.03
0.01 0.02 0.01 0.00 0.00 0.00 0.01 0.00 0.00 0.00 0.01 0.01 0.00 0.00 0.00 0.00 0.01 0.01 0.00 0.00 0.01 0.01 0.01 0.01 0.01 0.01 0.02 0.02 0.02 0.02 0.04 0.03 0.03 0.02 0.02 0.03 0.02 0.03 0.04 0.04 0.04 0.04 0.04 0.03
0.02 0.01 0.01 0.00 0.00 0.00 0.00 0.00 0.00 0.01 0.00 0.00 0.00 0.00 0.00 0.00 0.00 0.00 0.01 0.01 0.01 0.01 0.01 0.01 0.01 0.01 0.02 0.02 0.02 0.02 0.03 0.03 0.03 0.02 0.02 0.04 0.03 0.03 0.04 0.04 0.04 0.03 0.04 0.03
0.01 0.01 0.00 0.01 0.01 0.01 0.01 0.01 0.01 0.01 0.01 0.01 0.01 0.00 0.00 0.00 0.00 0.00 0.01 0.01 0.01 0.01 0.01 0.01 0.01 0.01 0.01 0.01 0.01 0.02 0.02 0.02 0.01 0.02 0.02 0.03 0.03 0.03 0.04 0.05 0.04 0.03 0.03 0.03
0.01 0.01 0.01 0.01 0.01 0.01 0.01 0.01 0.01 0.01 0.01 0.01 0.01 0.01 0.00 0.00 0.01 0.01 0.01 0.01 0.01 0.01 0.01 0.01 0.01 0.01 0.01 0.01 0.01 0.02 0.02 0.02 0.01 0.01 0.02 0.03 0.03 0.03 0.04 0.04 0.03 0.03 0.03 0.04
0.01 0.01 0.01 0.01 0.01 0.01 0.01 0.01 0.01 0.01 0.01 0.01 0.01 0.01 0.01 0.01 0.00 0.01 0.01 0.01 0.01 0.01 0.01 0.01 0.01 0.01 0.01 0.02 0.02 0.02 0.02 0.02 0.02 0.02 0.02 0.02 0.02 0.03 0.03 0.03 0.03 0.03 0.03 0.04
0.01 0.01 0.01 0.01 0.01 0.00 0.00 0.00 0.01 0.01 0.01 0.01 0.01 0.00 0.00 0.00 0.00 0.00 0.00 0.00 0.01 0.01 0.01 0.01 0.01 0.01 0.01 0.02 0.02 0.02 0.02 0.02 0.02 0.02 0.02 0.02 0.02 0.02 0.03 0.03 0.03 0.03 0.03 0.04
0.01 0.01 0.01 0.01 0.01 0.01 0.01 0.00 0.00 0.00 0.00 0.00 0.00 0.00 0.00 0.00 0.00 0.00 0.00 0.01 0.01 0.01 0.01 0.01 0.01 0.01 0.01 0.02 0.02 0.03 0.03 0.02 0.02 0.02 0.02 0.02 0.02 0.02 0.02 0.02 0.02 0.03 0.03 0.03
0.01 0.01 0.01 0.01 0.01 0.00 0.00 0.00 0.00 0.00 0.00 0.00 0.00 0.00 0.00 0.01 0.01 0.01 0.01 0.01 0.01 0.01 0.01 0.01 0.01 0.01 0.01 0.01 0.02 0.02 0.02 0.03 0.02 0.02 0.02 0.02 0.02 0.02 0.03 0.03 0.03 0.02 0.02 0.02
0.00 0.00 0.00 0.00 0.00 0.00 0.00 0.00 0.01 0.00 0.00 0.00 0.00 0.00 0.01 0.01 0.01 0.01 0.01 0.01 0.01 0.01 0.01 0.01 0.01 0.01 0.01 0.01 0.01 0.02 0.02 0.02 0.02 0.02 0.02 0.02 0.02 0.02 0.02 0.02 0.02 0.02 0.02 0.02
0.00 0.00 0.00 0.00 0.00 0.00 0.00 0.00 0.01 0.01 0.00 0.00 0.01 0.01 0.01 0.01 0.01 0.01 0.01 0.01 0.01 0.01 0.01 0.01 0.01 0.01 0.01 0.01 0.01 0.01 0.01 0.01 0.01 0.01 0.01 0.02 0.02 0.02 0.02 0.02 0.02 0.02 0.02 0.02
0.01 0.01 0.01 0.01 0.01 0.00 0.00 0.00 0.01 0.01 0.01 0.01 0.01 0.01 0.01 0.01 0.01 0.01 0.01 0.01 0.01 0.01 0.01 0.01 0.01 0.01 0.01 0.01 0.01 0.01 0.01 0.01 0.01 0.01 0.01 0.01 0.02 0.02 0.02 0.02 0.02 0.02 0.02 0.02
0.01 0.01 0.01 0.01 0.01 0.01 0.01 0.01 0.01 0.01 0.01 0.01 0.01 0.01 0.01 0.01 0.01 0.01 0.01 0.01 0.01 0.01 0.01 0.01 0.01 0.01 0.01 0.01 0.01 0.01 0.01 0.01 0.01 0.01 0.01 0.01 0.01 0.01 0.01 0.01 0.01 0.01 0.01 0.01
0.00 0.00 0.00 0.00 0.00 0.00 0.00 0.00 0.00 0.01 0.01 0.01 0.01 0.01 0.01 0.01 0.01 0.01 0.01 0.00 0.01 0.01 0.01 0.01 0.01 0.01 0.01 0.01 0.01 0.01 0.01 0.01 0.01 0.01 0.01 0.01 0.01 0.01 0.01 0.01 0.01 0.01 0.01 0.01
0.00 0.00 0.00 0.00 0.00 0.00 0.00 0.00 0.00 0.01 0.01 0.01 0.01 0.01 0.01 0.01 0.01 0.01 0.01 0.00 0.00 0.01 0.01 0.01 0.01 0.01 0.01 0.01 0.01 0.01 0.01 0.01 0.01 0.01 0.01 0.01 0.01 0.01 0.01 0.01 0.01 0.01 0.01 0.01
0.00 0.00 0.00 0.00 0.00 0.00 0.00 0.01 0.01 0.01 0.01 0.01 0.01 0.01 0.01 0.00 0.00 0.00 0.00 0.01 0.01 0.01 0.01 0.01 0.01 0.01 0.01 0.01 0.01 0.01 0.01 0.01 0.01 0.01 0.01 0.01 0.01 0.01 0.01 0.01 0.01 0.01 0.01 0.01
0.00 0.00 0.00 0.00 0.00 0.00 0.00 0.01 0.01 0.01 0.01 0.01 0.01 0.01 0.00 0.00 0.01 0.01 0.01 0.01 0.01 0.01 0.01 0.01 0.01 0.01 0.01 0.01 0.01 0.01 0.01 0.01 0.01 0.01 0.01 0.01 0.01 0.01 0.01 0.01 0.01 0.01 0.01 0.01
0.00 0.00 0.00 0.00 0.00 0.00 0.00 0.01 0.01 0.01 0.01 0.01 0.01 0.01 0.00 0.00 0.00 0.00 0.01 0.01 0.01 0.01 0.01 0.01 0.01 0.01 0.01 0.01 0.01 0.01 0.01 0.01 0.01 0.01 0.01 0.01 0.01 0.01 0.01 0.01 0.01 0.01 0.01 0.01
0.00 0.00 0.00 0.00 0.00 0.00 0.01 0.01 0.01 0.01 0.01 0.00 0.00 0.00 0.00 0.00 0.01 0.00 0.00 0.00 0.00 0.00 0.00 0.00 0.01 0.01 0.01 0.01 0.01 0.01 0.01 0.01 0.01 0.01 0.01 0.01 0.01 0.01 0.01 0.01 0.01 0.01 0.01 0.01
0.00 0.00 0.00 0.01 0.01 0.01 0.01 0.01 0.01 0.01 0.01 0.00 0.00 0.00 0.00 0.00 0.00 0.00 0.00 0.00 0.00 0.00 0.00 0.00 0.00 0.00 0.00 0.01 0.01 0.01 0.01 0.01 0.01 0.01 0.01 0.01 0.01 0.01 0.01 0.01 0.01 0.01 0.01 0.01
0.00 0.00 0.01 0.01 0.01 0.01 0.01 0.01 0.01 0.01 0.01 0.01 0.01 0.00 0.00 0.00 0.00 0.00 0.00 0.00 0.00 0.00 0.00 0.00 0.00 0.00 0.00 0.01 0.01 0.01 0.01 0.01 0.01 0.01 0.01 0.01 0.01 0.01 0.01 0.01 0.01 0.01 0.01 0.01
MSLP
1011.77 1012.65 1013.53 1014.38 1015.19 1015.96 1016.73 1017.56 1018.49 1019.54 1020.72 1021.99 1023.28 1024.49 1025.54 1026.33 1026.81 1026.97 1026.81 1026.41 1025.85 1025.22 1024.60 1024.04 1023.58 1023.18 1022.82 1022.42 1021.94 1021.33 1020.57 1019.68 1018.71 1017.70 1016.75 1015.90 1015.22 1014.73 1014.43 1014.29 1014.29 1014.39 1014.55 1014.76
1013.68 1015.08 1016.47 1017.78 1018.97 1020.00 1020.90 1021.70 1022.45 1023.19 1023.94 1024.72 1025.50 1026.22 1026.84 1027.30 1027.55 1027.58 1027.40 1027.04 1026.56 1026.03 1025.50 1025.02 1024.60 1024.23 1023.89 1023.52 1023.10 1022.57 1021.93 1021.18 1020.35 1019.48 1018.63 1017.84 1017.16 1016.60 1016.17 1015.86 1015.66 1015.54 1015.48 1015.47
1015.41 1017.20 1018.99 1020.68 1022.17 1023.43 1024.45 1025.23 1025.83 1026.30 1026.69 1027.03 1027.36 1027.65 1027.89 1028.06 1028.13 1028.08 1027.90 1027.61 1027.24 1026.82 1026.39 1025.97 1025.59 1025.22 1024.87 1024.50 1024.08 1023.60 1023.04 1022.40 1021.71 1020.99 1020.26 1019.56 1018.92 1018.35 1017.85 1017.43 1017.08 1016.79 1016.55 1016.37
1017.14 1019.14 1021.15 1023.05 1024.74 1026.13 1027.21 1027.97 1028.46 1028.72 1028.83 1028.84 1028.81 1028.76 1028.72 1028.68 1028.61 1028.52 1028.37 1028.17 1027.91 1027.60 1027.27 1026.91 1026.54 1026.16 1025.77 1025.36 1024.92 1024.44 1023.92 1023.36 1022.78 1022.18 1021.57 1020.98 1020.41 1019.87 1019.36 1018.88 1018.44 1018.04 1017.67 1017.36
1019.11 1021.12 1023.15 1025.08 1026.80 1028.22 1029.29 1030.01 1030.40 1030.52 1030.43 1030.21 1029.94 1029.66 1029.42 1029.23 1029.09 1028.98 1028.87 1028.75 1028.60 1028.39 1028.13 1027.82 1027.45 1027.05 1026.60 1026.13 1025.64 1025.13 1024.62 1024.11 1023.60 1023.09 1022.59 1022.10 1021.61 1021.12 1020.63 1020.14 1019.66 1019.19 1018.75 1018.36
1021.51 1023.35 1025.21 1027.00 1028.60 1029.92 1030.91 1031.55 1031.86 1031.88 1031.67 1031.31 1030.89 1030.48 1030.12 1029.84 1029.65 1029.53 1029.47 1029.41 1029.33 1029.19 1028.99 1028.69 1028.32 1027.88 1027.37 1026.84 1026.28 1025.74 1025.21 1024.71 1024.23 1023.79 1023.37 1022.95 1022.53 1022.09 1021.64 1021.17 1020.68 1020.20 1019.72 1019.29
1024.40 1025.93 1027.48 1028.98 1030.33 1031.46 1032.30 1032.83 1033.06 1033.00 1032.73 1032.31 1031.82 1031.33 1030.91 1030.58 1030.35 1030.22 1030.16 1030.13 1030.08 1029.98 1029.79 1029.51 1029.12 1028.64 1028.09 1027.49 1026.88 1026.29 1025.73 1025.23 1024.77 1024.35 1023.97 1023.60 1023.23 1022.83 1022.41 1021.96 1021.49 1021.01 1020.53 1020.09
1027.66 1028.81 1029.97 1031.10 1032.12 1032.98 1033.63 1034.02 1034.16 1034.06 1033.76 1033.32 1032.80 1032.28 1031.82 1031.44 1031.18 1031.01 1030.92 1030.87 1030.81 1030.70 1030.51 1030.22 1029.82 1029.31 1028.73 1028.09 1027.45 1026.83 1026.24 1025.72 1025.26 1024.85 1024.48 1024.12 1023.77 1023.39 1022.98 1022.55 1022.09 1021.62 1021.15 1020.71
1031.05 1031.80 1032.54 1033.27 1033.94 1034.51 1034.94 1035.19 1035.24 1035.10 1034.79 1034.35 1033.84 1033.30 1032.81 1032.39 1032.06 1031.82 1031.67 1031.56 1031.45 1031.31 1031.09 1030.78 1030.37 1029.86 1029.27 1028.63 1027.98 1027.35 1026.75 1026.22 1025.74 1025.32 1024.94 1024.57 1024.20 1023.82 1023.40 1022.97 1022.51 1022.04 1021.58 1021.14
1034.24 1034.62 1034.98 1035.33 1035.67 1035.96 1036.18 1036.30 1036.27 1036.10 1035.79 1035.36 1034.85 1034.31 1033.78 1033.30 1032.89 1032.57 1032.32 1032.12 1031.94 1031.74 1031.49 1031.16 1030.75 1030.26 1029.69 1029.08 1028.46 1027.84 1027.26 1026.72 1026.24 1025.80 1025.38 1024.99 1024.59 1024.17 1023.73 1023.27 1022.79 1022.31 1021.84 1021.40
1036.92 1037.00 1037.04 1037.08 1037.13 1037.20 1037.25 1037.24 1037.16 1036.97 1036.66 1036.24 1035.74 1035.18 1034.62 1034.07 1033.58 1033.16 1032.81 1032.51 1032.24 1031.98 1031.70 1031.36 1030.97 1030.51 1029.99 1029.44 1028.86 1028.29 1027.74 1027.21 1026.72 1026.27 1025.82 1025.39 1024.94 1024.48 1023.99 1023.49 1022.98 1022.47 1021.99 1021.53
1038.91 1038.76 1038.56 1038.37 1038.22 1038.11 1038.03 1037.94 1037.81 1037.61 1037.31 1036.91 1036.41 1035.85 1035.25 1034.64 1034.07 1033.55 1033.10 1032.71 1032.36 1032.05 1031.73 1031.40 1031.03 1030.62 1030.17 1029.68 1029.18 1028.66 1028.15 1027.65 1027.17 1026.70 1026.23 1025.76 1025.26 1024.75 1024.22 1023.67 1023.12 1022.58 1022.07 1021.59
1040.20 1039.90 1039.54 1039.19 1038.90 1038.68 1038.51 1038.38 1038.23 1038.02 1037.73 1037.35 1036.85 1036.28 1035.65 1035.00 1034.36 1033.76 1033.22 1032.75 1032.35 1031.98 1031.65 1031.32 1030.99 1030.63 1030.24 1029.82 1029.38 1028.92 1028.46 1027.99 1027.52 1027.04 1026.56 1026.06 1025.53 1024.98 1024.41 1023.83 1023.24 1022.67 1022.13 1021.63
1040.95 1040.54 1040.08 1039.64 1039.27 1038.98 1038.77 1038.60 1038.44 1038.24 1037.96 1037.59 1037.10 1036.52 1035.87 1035.19 1034.50 1033.84 1033.24 1032.71 1032.25 1031.86 1031.50 1031.18 1030.86 1030.53 1030.19 1029.82 1029.43 1029.03 1028.60 1028.16 1027.71 1027.24 1026.75 1026.24 1025.70 1025.13 1024.54 1023.94 1023.34 1022.74 1022.18 1021.66
1041.36 1040.89 1040.37 1039.89 1039.47 1039.15 1038.91 1038.73 1038.56 1038.35 1038.08 1037.71 1037.22 1036.64 1035.97 1035.27 1034.55 1033.85 1033.21 1032.63 1032.13 1031.70 1031.32 1030.98 1030.66 1030.34 1030.02 1029.68 1029.31 1028.93 1028.53 1028.11 1027.67 1027.22 1026.74 1026.23 1025.70 1025.14 1024.56 1023.96 1023.35 1022.76 1022.19 1021.66
1041.66 1041.15 1040.60 1040.09 1039.66 1039.32 1039.06 1038.86 1038.67 1038.45 1038.16 1037.78 1037.29 1036.69 1036.02 1035.29 1034.55 1033.83 1033.15 1032.53 1031.99 1031.51 1031.09 1030.72 1030.37 1030.03 1029.69 1029.34 1028.97 1028.59 1028.19 1027.78 1027.35 1026.91 1026.46 1025.98 1025.47 1024.94 1024.39 1023.81 1023.24 1022.66 1022.11 1021.58
1041.98 1041.44 1040.88 1040.36 1039.91 1039.55 1039.27 1039.04 1038.83 1038.57 1038.26 1037.85 1037.33 1036.72 1036.02 1035.28 1034.51 1033.76 1033.04 1032.38 1031.79 1031.26 1030.79 1030.36 1029.95 1029.56 1029.17 1028.78 1028.38 1027.97 1027.56 1027.14 1026.72 1026.30 1025.87 1025.42 1024.96 1024.47 1023.97 1023.44 1022.91 1022.37 1021.84 1021.34
1042.36 1041.80 1041.22 1040.69 1040.23 1039.85 1039.54 1039.27 1039.00 1038.70 1038.33 1037.88 1037.32 1036.68 1035.95 1035.18 1034.39 1033.60 1032.85 1032.14 1031.49 1030.90 1030.36 1029.85 1029.37 1028.90 1028.44 1027.99 1027.53 1027.09 1026.64 1026.21 1025.79 1025.38 1024.97 1024.56 1024.14 1023.71 1023.26 1022.79 1022.30 1021.81 1021.33 1020.85
1042.69 1042.11 1041.52 1040.98 1040.51 1040.10 1039.75 1039.43 1039.11 1038.75 1038.32 1037.81 1037.20 1036.51 1035.74 1034.94 1034.11 1033.29 1032.49 1031.74 1031.03 1030.37 1029.75 1029.16 1028.60 1028.05 1027.52 1026.99 1026.47 1025.98 1025.50 1025.04 1024.61 1024.20 1023.81 1023.43 1023.04 1022.65 1022.25 1021.83 1021.40 1020.95 1020.51 1020.07
1042.82 1042.23 1041.65 1041.10 1040.62 1040.19 1039.80 1039.42 1039.04 1038.61 1038.12 1037.54 1036.88 1036.14 1035.34 1034.49 1033.63 1032.78 1031.95 1031.15 1030.39 1029.67 1028.98 1028.32 1027.68 1027.06 1026.45 1025.87 1025.29 1024.75 1024.24 1023.75 1023.31 1022.89 1022.50 1022.13 1021.76 1021.39 1021.01 1020.62 1020.22 1019.81 1019.40 1018.99
1042.65 1042.06 1041.48 1040.94 1040.45 1040.00 1039.58 1039.16 1038.72 1038.23 1037.67 1037.04 1036.33 1035.54 1034.71 1033.84 1032.96 1032.08 1031.22 1030.39 1029.60 1028.84 1028.10 1027.39 1026.70 1026.03 1025.37 1024.74 1024.13 1023.55 1023.00 1022.49 1022.02 1021.58 1021.17 1020.78 1020.40 1020.03 1019.65 1019.26 1018.86 1018.46 1018.07 1017.68
1042.13 1041.55 1040.99 1040.46 1039.98 1039.52 1039.08 1038.62 1038.14 1037.60 1037.00 1036.32 1035.57 1034.76 1033.91 1033.03 1032.14 1031.26 1030.39 1029.56 1028.75 1027.97 1027.22 1026.48 1025.77 1025.07 1024.40 1023.74 1023.11 1022.51 1021.94 1021.40 1020.90 1020.43 1019.98 1019.55 1019.13 1018.71 1018.29 1017.86 1017.44 1017.02 1016.62 1016.23
1041.32 1040.77 1040.24 1039.74 1039.27 1038.82 1038.37 1037.90 1037.38 1036.81 1036.18 1035.48 1034.71 1033.89 1033.04 1032.16 1031.29 1030.42 1029.57 1028.75 1027.95 1027.19 1026.44 1025.72 1025.01 1024.32 1023.65 1022.99 1022.36 1021.75 1021.17 1020.61 1020.07 1019.55 1019.05 1018.55 1018.06 1017.57 1017.07 1016.58 1016.10 1015.63 1015.18 1014.77
1040.39 1039.88 1039.39 1038.93 1038.49 1038.05 1037.60 1037.12 1036.59 1036.00 1035.35 1034.63 1033.87 1033.06 1032.22 1031.37 1030.53 1029.69 1028.88 1028.09 1027.33 1026.59 1025.88 1025.19 1024.51 1023.85 1023.20 1022.57 1021.95 1021.35 1020.76 1020.18 1019.60 1019.03 1018.46 1017.88 1017.30 1016.71 1016.11 1015.53 1014.95 1014.40 1013.89 1013.43
1039.54 1039.07 1038.63 1038.21 1037.80 1037.38 1036.93 1036.44 1035.90 1035.30 1034.64 1033.93 1033.18 1032.39 1031.58 1030.77 1029.97 1029.18 1028.41 1027.67 1026.96 1026.26 1025.59 1024.94 1024.31 1023.68 1023.07 1022.47 1021.88 1021.29 1020.70 1020.10 1019.50 1018.87 1018.23 1017.57 1016.88 1016.18 1015.48 1014.77 1014.09 1013.45 1012.85 1012.31
1038.93 1038.52 1038.13 1037.75 1037.36 1036.95 1036.50 1036.00 1035.45 1034.84 1034.18 1033.47 1032.73 1031.96 1031.19 1030.42 1029.67 1028.93 1028.21 1027.52 1026.85 1026.20 1025.58 1024.97 1024.38 1023.79 1023.22 1022.65 1022.09 1021.51 1020.93 1020.32 1019.69 1019.02 1018.31 1017.57 1016.79 1015.98 1015.17 1014.35 1013.56 1012.80 1012.11 1011.47
1038.66 1038.31 1037.96 1037.61 1037.23 1036.81 1036.35 1035.83 1035.26 1034.63 1033.96 1033.26 1032.53 1031.79 1031.05 1030.33 1029.61 1028.92 1028.25 1027.60 1026.97 1026.36 1025.76 1025.19 1024.63 1024.08 1023.54 1023.00 1022.45 1021.90 1021.32 1020.71 1020.06 1019.36 1018.60 1017.79 1016.94 1016.05 1015.14 1014.22 1013.32 1012.47 1011.67 1010.94
Thickness
5386 5386 5381 5377 5374 5368 5361 5365 5367 5376 5373 5367 5362 5356 5351 5347 5344 5341 5339 5337 5335 5332 5331 5331 5332 5332 5333 5334 5335 5337 5339 5341 5344 5346 5349 5352 5355 5358 5361 5363 5366 5368 5370 5372
5370 5376 5371 5369 5366 5362 5356 5353 5351 5355 5352 5351 5348 5343 5338 5334 5332 5329 5327 5325 5323 5320 5318 5317 5317 5317 5318 5319 5320 5322 5323 5326 5328 5331 5333 5336 5339 5342 5345 5348 5351 5353 5355 5358
5365 5363 5360 5355 5354 5350 5344 5340 5339 5339 5341 5338 5333 5330 5325 5321 5319 5316 5315 5312 5310 5308 5306 5304 5303 5303 5303 5305 5306 5307 5309 5311 5313 5315 5318 5320 5323 5327 5330 5333 5336 5338 5340 5343
5352 5348 5340 5354 5351 5345 5337 5333 5329 5328 5327 5325 5322 5317 5315 5311 5307 5304 5302 5300 5297 5295 5294 5292 5291 5291 5291 5291 5293 5294 5295 5297 5299 5302 5303 5305 5308 5311 5315 5318 5321 5323 5325 5328
5340 5336 5347 5343 5339 5332 5325 5322 5317 5314 5313 5310 5307 5307 5306 5302 5296 5292 5289 5287 5284 5283 5281 5280 5279 5279 5279 5279 5280 5281 5283 5284 5286 5288 5289 5291 5293 5296 5300 5303 5306 5309 5311 5313
5332 5331 5333 5334 5323 5320 5317 5310 5308 5304 5299 5295 5293 5294 5296 5290 5285 5282 5279 5275 5272 5270 5269 5267 5266 5266 5266 5267 5267 5269 5270 5272 5273 5275 5276 5277 5279 5282 5285 5288 5291 5294 5297 5300
5321 5320 5325 5311 5307 5310 5306 5306 5296 5293 5287 5282 5278 5274 5275 5274 5272 5269 5266 5263 5261 5258 5256 5254 5254 5253 5253 5254 5254 5256 5257 5259 5261 5262 5262 5264 5266 5268 5271 5274 5277 5280 5283 5286
5312 5312 5314 5295 5295 5292 5290 5286 5283 5279 5274 5269 5265 5264 5262 5260 5257 5255 5252 5250 5248 5245 5243 5241 5241 5240 5241 5241 5243 5244 5244 5246 5248 5249 5250 5252 5253 5256 5258 5260 5263 5266 5269 5272
5303 5302 5295 5286 5282 5279 5276 5272 5270 5266 5261 5257 5254 5252 5250 5247 5244 5241 5239 5237 5234 5232 5231 5230 5229 5228 5228 5230 5230 5232 5232 5234 5235 5237 5238 5240 5242 5244 5246 5248 5250 5253 5255 5258
5288 5288 5284 5279 5274 5269 5264 5260 5257 5253 5249 5246 5243 5241 5237 5234 5232 5229 5227 5224 5222 5220 5219 5218 5218 5217 5217 5218 5219 5220 5221 5222 5224 5225 5227 5229 5230 5232 5234 5235 5236 5239 5241 5243
5274 5276 5273 5272 5265 5258 5253 5248 5244 5241 5237 5234 5231 5229 5225 5222 5219 5217 5215 5212 5210 5209 5208 5207 5207 5206 5207 5207 5208 5208 5209 5211 5212 5214 5215 5217 5219 5221 5222 5224 5224 5226 5228 5229
5268 5266 5259 5257 5251 5246 5241 5236 5233 5229 5227 5224 5220 5217 5214 5211 5208 5205 5203 5201 5199 5198 5197 5195 5195 5195 5195 5196 5196 5196 5198 5199 5200 5202 5204 5206 5207 5210 5212 5212 5214 5215 5217 5217
5254 5250 5246 5242 5238 5233 5228 5225 5221 5218 5215 5212 5209 5206 5203 5200 5197 5194 5191 5189 5188 5186 5185 5184 5184 5184 5184 5185 5185 5185 5186 5188 5190 5191 5193 5194 5195 5197 5199 5201 5202 5204 5205 5206
5242 5237 5234 5230 5225 5220 5217 5213 5210 5206 5203 5200 5197 5195 5191 5188 5185 5182 5180 5178 5177 5176 5175 5174 5173 5173 5174 5175 5175 5175 5176 5179 5180 5181 5181 5181 5182 5184 5185 5187 5189 5191 5193 5194
5228 5224 5220 5216 5212 5209 5205 5201 5198 5194 5192 5189 5186 5183 5179 5176 5174 5171 5169 5168 5167 5166 5165 5164 5164 5164 5165 5165 5165 5165 5167 5168 5170 5170 5170 5171 5171 5173 5174 5175 5177 5178 5181 5183
5217 5214 5210 5205 5202 5198 5194 5190 5186 5184 5181 5178 5174 5171 5169 5166 5163 5161 5159 5158 5156 5156 5155 5154 5155 5155 5156 5156 5156 5156 5157 5159 5160 5160 5160 5160 5161 5162 5163 5164 5165 5166 5168 5170
5206 5203 5200 5195 5192 5188 5183 5180 5176 5174 5170 5167 5164 5162 5159 5156 5154 5152 5150 5148 5146 5146 5145 5145 5146 5146 5146 5146 5146 5147 5148 5148 5150 5150 5150 5150 5150 5151 5152 5153 5154 5156 5157 5160
5196 5193 5189 5185 5182 5178 5175 5171 5167 5164 5161 5158 5155 5152 5149 5147 5145 5143 5141 5139 5137 5137 5136 5137 5137 5137 5137 5137 5137 5137 5138 5139 5139 5139 5140 5140 5140 5141 5142 5143 5144 5146 5148 5149
5187 5183 5180 5177 5173 5169 5165 5162 5159 5155 5152 5149 5146 5143 5141 5139 5137 5135 5132 5130 5129 5129 5130 5129 5130 5129 5129 5129 5130 5129 5129 5130 5130 5131 5131 5132 5133 5133 5133 5133 5134 5135 5137 5139
5178 5175 5171 5167 5164 5160 5156 5153 5150 5147 5144 5141 5138 5135 5133 5131 5129 5127 5124 5122 5122 5122 5122 5122 5122 5122 5121 5121 5123 5122 5121 5121 5121 5122 5123 5123 5123 5123 5124 5124 5125 5126 5128 5129
5168 5165 5161 5157 5154 5151 5148 5145 5142 5139 5137 5133 5131 5128 5126 5124 5122 5119 5117 5117 5117 5116 5116 5116 5115 5115 5115 5115 5116 5115 5114 5113 5113 5113 5114 5115 5115 5115 5115 5116 5116 5117 5119 5120
5158 5155 5152 5148 5145 5142 5140 5137 5134 5132 5130 5127 5124 5121 5119 5117 5115 5113 5112 5110 5111 5111 5110 5109 5108 5109 5109 5110 5109 5108 5107 5106 5105 5105 5106 5106 5106 5107 5107 5107 5108 5109 5110 5112
5151 5147 5144 5140 5137 5135 5132 5129 5127 5125 5123 5120 5118 5115 5113 5111 5109 5107 5106 5106 5105 5105 5104 5103 5103 5104 5104 5103 5101 5100 5100 5099 5099 5098 5098 5098 5098 5099 5099 5100 5101 5102 5103 5104
5143 5139 5136 5133 5129 5126 5124 5123 5121 5119 5116 5113 5112 5109 5106 5104 5103 5101 5100 5100 5099 5099 5097 5097 5097 5097 5097 5095 5094 5093 5093 5092 5092 5092 5092 5092 5092 5092 5093 5094 5094 5096 5097 5098
5134 5130 5127 5124 5121 5120 5118 5116 5113 5111 5108 5107 5105 5102 5100 5098 5096 5095 5093 5092 5092 5092 5091 5090 5090 5090 5088 5087 5086 5086 5086 5085 5086 5086 5086 5086 5086 5087 5087 5088 5089 5090 5092 5094
5125 5122 5119 5116 5114 5112 5110 5108 5106 5104 5101 5099 5097 5095 5093 5091 5089 5087 5086 5085 5084 5084 5083 5082 5082 5081 5080 5080 5079 5079 5079 5079 5079 5079 5079 5080 5080 5081 5082 5083 5084 5085 5087 5090
5118 5115 5112 5109 5108 5105 5102 5100 5097 5095 5093 5091 5089 5088 5086 5084 5082 5080 5079 5078 5077 5076 5076 5075 5075 5074 5074 5073 5073 5073 5073 5073 5073 5074 5074 5075 5075 5076 5077 5078 5080 5081 5083 5086